Location: *
(45.1961°N, 1.9694°E)
Time: 07:34:00
(UTC+00:00)

Cosmos 1500 - Pass Details

Date: 25 August 2019
Orbit: 499 x 521 km, 82.5° (Epoch: 16 October)

Event Time Altitude Azimuth Distance (km) Brightness Sun altitude
Exits shadow 20:13:23 - 187° (S) 2,112 6.0 -15.3°
Reaches altitude 10° 20:14:15 10° 188° (S) 1,751 5.6 -15.4°
Maximum altitude 20:18:06 89° 255° (WSW) 526 3.1 -16.0°
Drops below altitude 10° 20:21:59 10° 9° (N) 1,759 6.2 -16.6°
Sets 20:24:07 0° 9° (N) 2,648 7.2 -16.9°
